This is the latest recevied weather packets stored in our database for station/object KMKC. If no packets are shown the sender has not sent any weather packets the latest 10 day(s).
| Time | Temp. | Humidity | Pressure | Rain* | Wind** | Luminosity | Snow |
|---|---|---|---|---|---|---|---|
| 1777967015 | 15.56° C | - | 1007.5 hPa | - | - | - | - |
| 1777966412 | 15.56° C | - | 1007.5 hPa | - | - | - | - |
| 1777965816 | 15.56° C | - | 1007.5 hPa | - | - | - | - |
| 1777965212 | 15.56° C | - | 1007.5 hPa | - | - | - | - |
| 1777964614 | 15.56° C | - | 1007.5 hPa | - | - | - | - |
| 1777964014 | 17.78° C | 36% | 1005.4 hPa | - | - | - | - |
| 1777963415 | 17.78° C | 36% | 1005.4 hPa | - | - | - | - |
| 1777962811 | 17.78° C | 36% | 1005.4 hPa | - | - | - | - |
| 1777962210 | 17.78° C | 36% | 1005.4 hPa | - | - | - | - |
| 1777961614 | 17.78° C | 36% | 1005.4 hPa | - | - | - | - |
| 1777961013 | 17.78° C | 36% | 1005.4 hPa | - | - | - | - |
| 1777960419 | 17.78° C | 45% | 1005.8 hPa | - | - | - | - |
| 1777959818 | 18.89° C | 45% | 1005.1 hPa | - | - | - | - |
| 1777959213 | 18.89° C | 45% | 1005.1 hPa | - | - | - | - |
| 1777958614 | 18.89° C | 45% | 1005.1 hPa | - | - | - | - |
| 1777958014 | 17.78° C | 55% | 1005.1 hPa | - | - | - | - |
| 1777957415 | 17.78° C | 55% | 1005.1 hPa | - | - | - | - |
| 1777956811 | 18.89° C | 48% | 1004.4 hPa | - | - | - | - |
| 1777956212 | 18.89° C | 48% | 1004.4 hPa | - | - | - | - |
| 1777955612 | 21.67° C | 33% | 1004.1 hPa | - | - | - | - |
| 1777955010 | 21.67° C | 37% | 1003.7 hPa | - | - | - | - |
| 1777954840 | 21.67° C | 37% | 1003.7 hPa | - | - | - | - |
| 1777954415 | 21.67° C | 37% | 1003.7 hPa | - | - | - | - |
| 1777953213 | 21.67° C | 56% | 1002.7 hPa | - | - | - | - |
| 1777952616 | 21.67° C | 56% | 1002.7 hPa | - | - | - | - |
* Rain since midnight (hover to see other rain measurements)
** Current wind speed in m/s (hover to see current wind gust speed)